KB1JDX Weather Reports


Display with metric or nautical units.
time (UTC)temp
F
wind
direction
speed
MPH
gust
MPH
rain 1hr
in
rain 24hr
in
rain mn
in
humidity
%
barometer
mb
20201129135424 35 336 0.0 0.0 0.00 0.00 0.00 82 1020.7
20201129125424 29 336 0.0 0.0 0.00 0.00 0.00 83 1020.4
20201129115423 28 336 0.0 0.0 0.00 0.00 0.00 84 1020.1
20201129105423 28 336 0.0 0.0 0.00 0.00 0.00 84 1019.8
20201129095422 29 336 0.0 0.0 0.00 0.00 0.00 83 1019.1
20201129085423 29 336 0.0 0.0 0.00 0.00 0.00 83 1018.6
20201129075427 30 336 0.0 0.0 0.00 0.00 0.00 84 1018.5
20201129065427 30 336 0.0 0.0 0.00 0.00 0.00 84 1018.5
20201129055425 32 336 0.0 0.0 0.00 0.00 0.00 84 1018.2
20201129045428 33 336 0.0 0.0 0.00 0.00 0.00 85 1017.9
20201129035422 35 336 0.0 0.0 0.00 0.00 0.00 84 1017.9
20201129025422 37 336 0.0 0.0 0.00 0.00 0.00 83 1017.0
20201129015427 40 336 0.0 1.0 0.00 0.00 0.00 78 1016.8
20201129005424 42 336 0.0 2.0 0.00 0.00 0.00 72 1016.4
20201128235425 44 336 0.0 5.0 0.00 0.00 0.00 72 1015.7
20201128225424 45 302 0.0 4.0 0.00 0.00 0.00 77 1015.3
20201128215423 47 302 0.0 2.0 0.00 0.00 0.00 72 1014.4
20201128205428 49 305 0.0 4.0 0.00 0.00 0.00 67 1013.8
20201128195424 50 309 0.0 8.0 0.00 0.00 0.00 70 1013.1
20201128185424 52 298 2.0 8.0 0.00 0.00 0.00 63 1012.8
20201128175423 54 318 2.0 7.0 0.00 0.00 0.00 61 1012.5
20201128165423 51 244 1.0 7.0 0.00 0.00 0.00 70 1013.2
20201128155422 51 293 2.0 2.0 0.00 0.00 0.00 71 1013.7
20201128145423 47 186 0.0 0.0 0.00 0.00 0.00 81 1014.1